Year,Month,Day,Hour,Minute,Value (Times are PST for temperature in C)
2020,05,28,00,00,12.20
2020,05,28,00,01,12.20
2020,05,28,00,02,12.20
2020,05,28,00,03,12.20
2020,05,28,00,04,12.20
2020,05,28,00,05,12.20
2020,05,28,00,06,12.20
2020,05,28,00,07,12.10
2020,05,28,00,08,12.10
2020,05,28,00,09,12.10
2020,05,28,00,10,12.10
2020,05,28,00,11,12.10
2020,05,28,00,12,12.10
2020,05,28,00,13,12.10
2020,05,28,00,14,12.10
2020,05,28,00,15,12.10
2020,05,28,00,16,12.10
2020,05,28,00,17,12.00
2020,05,28,00,18,12.00
2020,05,28,00,19,12.00
2020,05,28,00,20,12.00
2020,05,28,00,21,12.00
2020,05,28,00,22,12.00
2020,05,28,00,23,12.00
2020,05,28,00,24,12.00
2020,05,28,00,25,12.00
2020,05,28,00,26,11.90
2020,05,28,00,27,11.90
2020,05,28,00,28,11.90
2020,05,28,00,29,11.90
2020,05,28,00,30,11.90
2020,05,28,00,31,11.90
2020,05,28,00,32,11.90
2020,05,28,00,33,11.90
2020,05,28,00,34,11.80
2020,05,28,00,35,11.80
2020,05,28,00,36,11.80
2020,05,28,00,37,11.80
2020,05,28,00,38,11.80
2020,05,28,00,39,11.80
2020,05,28,00,40,11.70
2020,05,28,00,41,11.70
2020,05,28,00,42,11.70
2020,05,28,00,43,11.70
2020,05,28,00,44,11.70
2020,05,28,00,45,11.60
2020,05,28,00,46,11.60
2020,05,28,00,47,11.60
2020,05,28,00,48,11.60
2020,05,28,00,49,11.60
2020,05,28,00,50,11.50
2020,05,28,00,51,11.50
2020,05,28,00,52,11.50
2020,05,28,00,53,11.50
2020,05,28,00,54,11.40
2020,05,28,00,55,11.40
2020,05,28,00,56,11.40
2020,05,28,00,57,11.40
2020,05,28,00,58,11.40
2020,05,28,00,59,11.40
2020,05,28,01,00,11.40
2020,05,28,01,01,11.40
2020,05,28,01,02,11.40
2020,05,28,01,03,11.30
2020,05,28,01,04,11.30
2020,05,28,01,05,11.30
2020,05,28,01,06,11.30
2020,05,28,01,07,11.30
2020,05,28,01,08,11.30
2020,05,28,01,09,11.30
2020,05,28,01,10,11.30
2020,05,28,01,11,11.30
2020,05,28,01,12,11.30
2020,05,28,01,13,11.30
2020,05,28,01,14,11.30
2020,05,28,01,15,11.30
2020,05,28,01,16,11.30
2020,05,28,01,17,11.30
2020,05,28,01,18,11.30
2020,05,28,01,19,11.30
2020,05,28,01,20,11.30
2020,05,28,01,21,11.30
2020,05,28,01,22,11.30
2020,05,28,01,23,11.30
2020,05,28,01,24,11.30
2020,05,28,01,25,11.30
2020,05,28,01,26,11.30
2020,05,28,01,27,11.30
2020,05,28,01,28,11.30
2020,05,28,01,29,11.30
2020,05,28,01,30,11.30
2020,05,28,01,31,11.30
2020,05,28,01,32,11.30
2020,05,28,01,33,11.30
2020,05,28,01,34,11.30
2020,05,28,01,35,11.30
2020,05,28,01,36,11.30
2020,05,28,01,37,11.30
2020,05,28,01,38,11.30
2020,05,28,01,39,11.30
2020,05,28,01,40,11.30
2020,05,28,01,41,11.30
2020,05,28,01,42,11.30
2020,05,28,01,43,11.30
2020,05,28,01,44,11.20
2020,05,28,01,45,11.20
2020,05,28,01,46,11.20
2020,05,28,01,47,11.20
2020,05,28,01,48,11.20
2020,05,28,01,49,11.20
2020,05,28,01,50,11.10
2020,05,28,01,51,11.10
2020,05,28,01,52,11.10
2020,05,28,01,53,11.10
2020,05,28,01,54,11.10
2020,05,28,01,55,11.10
2020,05,28,01,56,11.10
2020,05,28,01,57,11.00
2020,05,28,01,58,11.00
2020,05,28,01,59,11.00
2020,05,28,02,00,11.00
2020,05,28,02,01,10.90
2020,05,28,02,02,10.90
2020,05,28,02,03,10.90
2020,05,28,02,04,10.90
2020,05,28,02,05,10.90
2020,05,28,02,06,10.90
2020,05,28,02,07,10.90
2020,05,28,02,08,10.80
2020,05,28,02,09,10.80
2020,05,28,02,10,10.80
2020,05,28,02,11,10.80
2020,05,28,02,12,10.80
2020,05,28,02,13,10.80
2020,05,28,02,14,10.70
2020,05,28,02,15,10.70
2020,05,28,02,16,10.70
2020,05,28,02,17,10.70
2020,05,28,02,18,10.70
2020,05,28,02,19,10.70
2020,05,28,02,20,10.70
2020,05,28,02,21,10.70
2020,05,28,02,22,10.70
2020,05,28,02,23,10.70
2020,05,28,02,24,10.70
2020,05,28,02,25,10.60
2020,05,28,02,26,10.60
2020,05,28,02,27,10.60
2020,05,28,02,28,10.60
2020,05,28,02,29,10.60
2020,05,28,02,30,10.60
2020,05,28,02,31,10.60
2020,05,28,02,32,10.60
2020,05,28,02,33,10.50
2020,05,28,02,34,10.50
2020,05,28,02,35,10.50
2020,05,28,02,36,10.50
2020,05,28,02,37,10.50
2020,05,28,02,38,10.50
2020,05,28,02,39,10.40
2020,05,28,02,40,10.40
2020,05,28,02,41,10.40
2020,05,28,02,42,10.40
2020,05,28,02,43,10.40
2020,05,28,02,44,10.40
2020,05,28,02,45,10.40
2020,05,28,02,46,10.40
2020,05,28,02,47,10.40
2020,05,28,02,48,10.40
2020,05,28,02,49,10.30
2020,05,28,02,50,10.30
2020,05,28,02,51,10.30
2020,05,28,02,52,10.30
2020,05,28,02,53,10.30
2020,05,28,02,54,10.30
2020,05,28,02,55,10.30
2020,05,28,02,56,10.30
2020,05,28,02,57,10.30
2020,05,28,02,58,10.30
2020,05,28,02,59,10.20
2020,05,28,03,00,10.20
2020,05,28,03,01,10.20
2020,05,28,03,02,10.20
2020,05,28,03,03,10.20
2020,05,28,03,04,10.20
2020,05,28,03,05,10.20
2020,05,28,03,06,10.20
2020,05,28,03,07,10.20
2020,05,28,03,08,10.20
2020,05,28,03,09,10.20
2020,05,28,03,10,10.20
2020,05,28,03,11,10.20
2020,05,28,03,12,10.20
2020,05,28,03,13,10.20
2020,05,28,03,14,10.20
2020,05,28,03,15,10.20
2020,05,28,03,16,10.20
2020,05,28,03,17,10.20
2020,05,28,03,18,10.20
2020,05,28,03,19,10.20
2020,05,28,03,20,10.20
2020,05,28,03,21,10.20
2020,05,28,03,22,10.20
2020,05,28,03,23,10.20
2020,05,28,03,24,10.20
2020,05,28,03,25,10.20
2020,05,28,03,26,10.20
2020,05,28,03,27,10.20
2020,05,28,03,28,10.20
2020,05,28,03,29,10.20
2020,05,28,03,30,10.20
2020,05,28,03,31,10.20
2020,05,28,03,32,10.20
2020,05,28,03,33,10.20
2020,05,28,03,34,10.20
2020,05,28,03,35,10.20
2020,05,28,03,36,10.20
2020,05,28,03,37,10.20
2020,05,28,03,38,10.20
2020,05,28,03,39,10.20
2020,05,28,03,40,10.20
2020,05,28,03,41,10.20
2020,05,28,03,42,10.20
2020,05,28,03,43,10.10
2020,05,28,03,44,10.10
2020,05,28,03,45,10.10
2020,05,28,03,46,10.10
2020,05,28,03,47,10.10
2020,05,28,03,48,10.20
2020,05,28,03,49,10.20
2020,05,28,03,50,10.20
2020,05,28,03,51,10.20
2020,05,28,03,52,10.20
2020,05,28,03,53,10.20
2020,05,28,03,54,10.20
2020,05,28,03,55,10.20
2020,05,28,03,56,10.20
2020,05,28,03,57,10.20
2020,05,28,03,58,10.20
2020,05,28,03,59,10.20
2020,05,28,04,00,10.20
2020,05,28,04,01,10.20
2020,05,28,04,02,10.10
2020,05,28,04,03,10.20
2020,05,28,04,04,10.20
2020,05,28,04,05,10.20
2020,05,28,04,06,10.20
2020,05,28,04,07,10.20
2020,05,28,04,08,10.20
2020,05,28,04,09,10.20
2020,05,28,04,10,10.20
2020,05,28,04,11,10.20
2020,05,28,04,12,10.20
2020,05,28,04,13,10.20
2020,05,28,04,14,10.20
2020,05,28,04,15,10.20
2020,05,28,04,16,10.20
2020,05,28,04,17,10.20
2020,05,28,04,18,10.20
2020,05,28,04,19,10.20
2020,05,28,04,20,10.20
2020,05,28,04,21,10.20
2020,05,28,04,22,10.20
2020,05,28,04,23,10.20
2020,05,28,04,24,10.20
2020,05,28,04,25,10.20
2020,05,28,04,26,10.20
2020,05,28,04,27,10.20
2020,05,28,04,28,10.20
2020,05,28,04,29,10.20
2020,05,28,04,30,10.20
2020,05,28,04,31,10.20
2020,05,28,04,32,10.20
2020,05,28,04,33,10.20
2020,05,28,04,34,10.20
2020,05,28,04,35,10.20
2020,05,28,04,36,10.20
2020,05,28,04,37,10.20
2020,05,28,04,38,10.30
2020,05,28,04,39,10.30
2020,05,28,04,40,10.30
2020,05,28,04,41,10.30
2020,05,28,04,42,10.30
2020,05,28,04,43,10.30
2020,05,28,04,44,10.30
2020,05,28,04,45,10.30
2020,05,28,04,46,10.30
2020,05,28,04,47,10.30
2020,05,28,04,48,10.30
2020,05,28,04,49,10.40
2020,05,28,04,50,10.40
2020,05,28,04,51,10.40
2020,05,28,04,52,10.40
2020,05,28,04,53,10.40
2020,05,28,04,54,10.40
2020,05,28,04,55,10.40
2020,05,28,04,56,10.50
2020,05,28,04,57,10.50
2020,05,28,04,58,10.60
2020,05,28,04,59,10.60
2020,05,28,05,00,10.60
2020,05,28,05,01,10.60
2020,05,28,05,02,10.70
2020,05,28,05,03,10.70
2020,05,28,05,04,10.70
2020,05,28,05,05,10.80
2020,05,28,05,06,10.80
2020,05,28,05,07,10.80
2020,05,28,05,08,10.90
2020,05,28,05,09,10.90
2020,05,28,05,10,11.00
2020,05,28,05,11,11.10
2020,05,28,05,12,11.10
2020,05,28,05,13,11.10
2020,05,28,05,14,11.20
2020,05,28,05,15,11.20
2020,05,28,05,16,11.30
2020,05,28,05,17,11.30
2020,05,28,05,18,11.30
2020,05,28,05,19,11.40
2020,05,28,05,20,11.40
2020,05,28,05,21,11.40
2020,05,28,05,22,11.40
2020,05,28,05,23,11.40
2020,05,28,05,24,11.40
2020,05,28,05,25,11.40
2020,05,28,05,26,11.50
2020,05,28,05,27,11.40
2020,05,28,05,28,11.50
2020,05,28,05,29,11.50
2020,05,28,05,30,11.50
2020,05,28,05,31,11.50
2020,05,28,05,32,11.50
2020,05,28,05,33,11.50
2020,05,28,05,34,11.50
2020,05,28,05,35,11.60
2020,05,28,05,36,11.60
2020,05,28,05,37,11.60
2020,05,28,05,38,11.60
2020,05,28,05,39,11.60
2020,05,28,05,40,11.60
2020,05,28,05,41,11.60
2020,05,28,05,42,11.60
2020,05,28,05,43,11.60
2020,05,28,05,44,11.60
2020,05,28,05,45,11.60
2020,05,28,05,46,11.60
2020,05,28,05,47,11.60
2020,05,28,05,48,11.60
2020,05,28,05,49,11.60
2020,05,28,05,50,11.60
2020,05,28,05,51,11.70
2020,05,28,05,52,11.70
2020,05,28,05,53,11.70
2020,05,28,05,54,11.70
2020,05,28,05,55,11.70
2020,05,28,05,56,11.70
2020,05,28,05,57,11.70
2020,05,28,05,58,11.70
2020,05,28,05,59,11.70
2020,05,28,06,00,11.70
2020,05,28,06,01,11.80
2020,05,28,06,02,11.80
2020,05,28,06,03,11.80
2020,05,28,06,04,11.80
2020,05,28,06,05,11.80
2020,05,28,06,06,11.90
2020,05,28,06,07,11.90
2020,05,28,06,08,12.00
2020,05,28,06,09,12.00
2020,05,28,06,10,12.00
2020,05,28,06,11,12.10
2020,05,28,06,12,12.10
2020,05,28,06,13,12.20
2020,05,28,06,14,12.20
2020,05,28,06,15,12.20
2020,05,28,06,16,12.30
2020,05,28,06,17,12.30
2020,05,28,06,18,12.30
2020,05,28,06,19,12.30
2020,05,28,06,20,12.30
2020,05,28,06,21,12.40
2020,05,28,06,22,12.40
2020,05,28,06,23,12.40
2020,05,28,06,24,12.50
2020,05,28,06,25,12.50
2020,05,28,06,26,12.50
2020,05,28,06,27,12.60
2020,05,28,06,28,12.60
2020,05,28,06,29,12.60
2020,05,28,06,30,12.70
2020,05,28,06,31,12.70
2020,05,28,06,32,12.70
2020,05,28,06,33,12.80
2020,05,28,06,34,12.80
2020,05,28,06,35,12.80
2020,05,28,06,36,12.80
2020,05,28,06,37,12.90
2020,05,28,06,38,12.90
2020,05,28,06,39,12.90
2020,05,28,06,40,12.90
2020,05,28,06,41,13.00
2020,05,28,06,42,13.00
2020,05,28,06,43,13.00
2020,05,28,06,44,13.10
2020,05,28,06,45,13.10
2020,05,28,06,46,13.10
2020,05,28,06,47,13.10
2020,05,28,06,48,13.20
2020,05,28,06,49,13.20
2020,05,28,06,50,13.20
2020,05,28,06,51,13.20
2020,05,28,06,52,13.20
2020,05,28,06,53,13.30
2020,05,28,06,54,13.30
2020,05,28,06,55,13.30
2020,05,28,06,56,13.30
2020,05,28,06,57,13.30
2020,05,28,06,58,13.30
2020,05,28,06,59,13.30
2020,05,28,07,00,13.30
2020,05,28,07,01,13.30
2020,05,28,07,02,13.40
2020,05,28,07,03,13.40
2020,05,28,07,04,13.40
2020,05,28,07,05,13.40
2020,05,28,07,06,13.40
2020,05,28,07,07,13.40
2020,05,28,07,08,13.40
2020,05,28,07,09,13.40
2020,05,28,07,10,13.40
2020,05,28,07,11,13.40
2020,05,28,07,12,13.40
2020,05,28,07,13,13.40
2020,05,28,07,14,13.40
2020,05,28,07,15,13.40
2020,05,28,07,16,13.40
2020,05,28,07,17,13.40
2020,05,28,07,18,13.40
2020,05,28,07,19,13.40
2020,05,28,07,20,13.40
2020,05,28,07,21,13.40
2020,05,28,07,22,13.40
2020,05,28,07,23,13.40
2020,05,28,07,24,13.40
2020,05,28,07,25,13.40
2020,05,28,07,26,13.40
2020,05,28,07,27,13.40
2020,05,28,07,28,13.40
2020,05,28,07,29,13.40
2020,05,28,07,30,13.40
2020,05,28,07,31,13.40
2020,05,28,07,32,13.40
2020,05,28,07,33,13.40
2020,05,28,07,34,13.40
2020,05,28,07,35,13.40
2020,05,28,07,36,13.40
2020,05,28,07,37,13.40
2020,05,28,07,38,13.40
2020,05,28,07,39,13.40
2020,05,28,07,40,13.40
2020,05,28,07,41,13.40
2020,05,28,07,42,13.40
2020,05,28,07,43,13.40
2020,05,28,07,44,13.40
2020,05,28,07,45,13.30
2020,05,28,07,46,13.40
2020,05,28,07,47,13.30
2020,05,28,07,48,13.30
2020,05,28,07,49,13.30
2020,05,28,07,50,13.30
2020,05,28,07,51,13.30
2020,05,28,07,52,13.30
2020,05,28,07,53,13.30
2020,05,28,07,54,13.30
2020,05,28,07,55,13.40
2020,05,28,07,56,13.40
2020,05,28,07,57,13.40
2020,05,28,07,58,13.40
2020,05,28,07,59,13.40
2020,05,28,08,00,13.40
2020,05,28,08,01,13.50
2020,05,28,08,02,13.50
2020,05,28,08,03,13.60
2020,05,28,08,04,13.60
2020,05,28,08,05,13.60
2020,05,28,08,06,13.60
2020,05,28,08,07,13.70
2020,05,28,08,08,13.70
2020,05,28,08,09,13.70
2020,05,28,08,10,13.80
2020,05,28,08,11,13.80
2020,05,28,08,12,13.80
2020,05,28,08,13,13.80
2020,05,28,08,14,13.90
2020,05,28,08,15,13.90
2020,05,28,08,16,13.90
2020,05,28,08,17,13.90
2020,05,28,08,18,14.00
2020,05,28,08,19,14.00
2020,05,28,08,20,14.00
2020,05,28,08,21,14.10
2020,05,28,08,22,14.10
2020,05,28,08,23,14.10
2020,05,28,08,24,14.10
2020,05,28,08,25,14.10
2020,05,28,08,26,14.20
2020,05,28,08,27,14.20
2020,05,28,08,28,14.20
2020,05,28,08,29,14.20
2020,05,28,08,30,14.30
2020,05,28,08,31,14.30
2020,05,28,08,32,14.30
2020,05,28,08,33,14.30
2020,05,28,08,34,14.40
2020,05,28,08,35,14.40
2020,05,28,08,36,14.50
2020,05,28,08,37,14.50
2020,05,28,08,38,14.60
2020,05,28,08,39,14.60
2020,05,28,08,40,14.70
2020,05,28,08,41,14.70
2020,05,28,08,42,14.80
2020,05,28,08,43,14.80
2020,05,28,08,44,14.90
2020,05,28,08,45,15.00
2020,05,28,08,46,15.00
2020,05,28,08,47,15.10
2020,05,28,08,48,15.10
2020,05,28,08,49,15.20
2020,05,28,08,50,15.30
2020,05,28,08,51,15.40
2020,05,28,08,52,15.50
2020,05,28,08,53,15.50
2020,05,28,08,54,15.60
2020,05,28,08,55,15.70
2020,05,28,08,56,15.80
2020,05,28,08,57,15.80
2020,05,28,08,58,15.90
2020,05,28,08,59,16.00
2020,05,28,09,00,16.00
2020,05,28,09,01,16.10
2020,05,28,09,02,16.10
2020,05,28,09,03,16.20
2020,05,28,09,04,16.30
2020,05,28,09,05,16.30
2020,05,28,09,06,16.40
2020,05,28,09,07,16.40
2020,05,28,09,08,16.50
2020,05,28,09,09,16.50
2020,05,28,09,10,16.60
2020,05,28,09,11,16.60
2020,05,28,09,12,16.70
2020,05,28,09,13,16.70
2020,05,28,09,14,16.80
2020,05,28,09,15,16.80
2020,05,28,09,16,16.90
2020,05,28,09,17,16.90
2020,05,28,09,18,17.00
2020,05,28,09,19,17.10
2020,05,28,09,20,17.10
2020,05,28,09,21,17.20
2020,05,28,09,22,17.30
2020,05,28,09,23,17.30
2020,05,28,09,24,17.40
2020,05,28,09,25,17.50
2020,05,28,09,26,17.50
2020,05,28,09,27,17.60
2020,05,28,09,28,17.70
2020,05,28,09,29,17.70
2020,05,28,09,30,17.80
2020,05,28,09,31,17.80
2020,05,28,09,32,17.90
2020,05,28,09,33,17.90
2020,05,28,09,34,18.00
2020,05,28,09,35,18.00
2020,05,28,09,36,18.10
2020,05,28,09,37,18.20
2020,05,28,09,38,18.20
2020,05,28,09,39,18.20
2020,05,28,09,40,18.30
2020,05,28,09,41,18.30
2020,05,28,09,42,18.30
2020,05,28,09,43,18.30
2020,05,28,09,44,18.30
2020,05,28,09,45,18.30
2020,05,28,09,46,18.30
2020,05,28,09,47,18.30
2020,05,28,09,48,18.30
2020,05,28,09,49,18.30
2020,05,28,09,50,18.30
2020,05,28,09,51,18.20
2020,05,28,09,52,18.20
2020,05,28,09,53,18.10
2020,05,28,09,54,18.10
2020,05,28,09,55,18.00
2020,05,28,09,56,18.00
2020,05,28,09,57,17.90
2020,05,28,09,58,17.80
2020,05,28,09,59,17.80
2020,05,28,10,00,17.80
2020,05,28,10,01,17.80
2020,05,28,10,02,17.80
2020,05,28,10,03,17.70
2020,05,28,10,04,17.70
2020,05,28,10,05,17.70
2020,05,28,10,06,17.70
2020,05,28,10,07,17.70
2020,05,28,10,08,17.70
2020,05,28,10,09,17.70
2020,05,28,10,10,17.80
2020,05,28,10,11,17.80
2020,05,28,10,12,17.80
2020,05,28,10,13,17.90
2020,05,28,10,14,17.90
2020,05,28,10,15,17.80
2020,05,28,10,16,17.80
2020,05,28,10,17,17.80
2020,05,28,10,18,17.80
2020,05,28,10,19,17.80
2020,05,28,10,20,17.80
2020,05,28,10,21,17.80
2020,05,28,10,22,17.80
2020,05,28,10,23,17.80
2020,05,28,10,24,17.90
2020,05,28,10,25,17.90
2020,05,28,10,26,18.00
2020,05,28,10,27,18.10
2020,05,28,10,28,18.20
2020,05,28,10,29,18.30
2020,05,28,10,30,18.40
2020,05,28,10,31,18.50
2020,05,28,10,32,18.60
2020,05,28,10,33,18.70
2020,05,28,10,34,18.80
2020,05,28,10,35,18.90
2020,05,28,10,36,19.00
2020,05,28,10,37,19.10
2020,05,28,10,38,19.10
2020,05,28,10,39,19.10
2020,05,28,10,40,19.10
2020,05,28,10,41,19.00
2020,05,28,10,42,19.00
2020,05,28,10,43,18.80
2020,05,28,10,44,18.80
2020,05,28,10,45,18.70
2020,05,28,10,46,18.60
2020,05,28,10,47,18.50
2020,05,28,10,48,18.50
2020,05,28,10,49,18.40
2020,05,28,10,50,18.40
2020,05,28,10,51,18.30
2020,05,28,10,52,18.30
2020,05,28,10,53,18.30
2020,05,28,10,54,18.20
2020,05,28,10,55,18.20
2020,05,28,10,56,18.20
2020,05,28,10,57,18.20
2020,05,28,10,58,18.30
2020,05,28,10,59,18.30
2020,05,28,11,00,18.30
2020,05,28,11,01,18.30
2020,05,28,11,02,18.40
2020,05,28,11,03,18.50
2020,05,28,11,04,18.50
2020,05,28,11,05,18.60
2020,05,28,11,06,18.70
2020,05,28,11,07,18.80
2020,05,28,11,08,18.80
2020,05,28,11,09,18.90
2020,05,28,11,10,19.10
2020,05,28,11,11,19.20
2020,05,28,11,12,19.20
2020,05,28,11,13,19.40
2020,05,28,11,14,19.40
2020,05,28,11,15,19.50
2020,05,28,11,16,19.60
2020,05,28,11,17,19.70
2020,05,28,11,18,19.70
2020,05,28,11,19,19.80
2020,05,28,11,20,19.80
2020,05,28,11,21,19.80
2020,05,28,11,22,19.80
2020,05,28,11,23,19.80
2020,05,28,11,24,19.80
2020,05,28,11,25,19.80
2020,05,28,11,26,19.70
2020,05,28,11,27,19.80
2020,05,28,11,28,19.80
2020,05,28,11,29,19.80
2020,05,28,11,30,19.80
2020,05,28,11,31,19.90
2020,05,28,11,32,19.90
2020,05,28,11,33,20.00
2020,05,28,11,34,20.00
2020,05,28,11,35,20.00
2020,05,28,11,36,20.00
2020,05,28,11,37,20.00
2020,05,28,11,38,20.00
2020,05,28,11,39,20.10
2020,05,28,11,40,20.10
2020,05,28,11,41,20.10
2020,05,28,11,42,20.10
2020,05,28,11,43,20.10
2020,05,28,11,44,20.10
2020,05,28,11,45,20.10
2020,05,28,11,46,20.10
2020,05,28,11,47,20.10
2020,05,28,11,48,20.10
2020,05,28,11,49,20.10
2020,05,28,11,50,20.10
2020,05,28,11,51,20.10
2020,05,28,11,52,20.00
2020,05,28,11,53,19.90
2020,05,28,11,54,19.90
2020,05,28,11,55,19.90
2020,05,28,11,56,19.80
2020,05,28,11,57,19.80
2020,05,28,11,58,19.80
2020,05,28,11,59,19.80
2020,05,28,12,00,19.80
2020,05,28,12,01,19.80
2020,05,28,12,02,19.80
2020,05,28,12,03,19.80
2020,05,28,12,04,19.80
2020,05,28,12,05,19.80
2020,05,28,12,06,19.80
2020,05,28,12,07,19.80
2020,05,28,12,08,19.80
2020,05,28,12,09,19.90
2020,05,28,12,10,19.90
2020,05,28,12,11,19.90
2020,05,28,12,12,19.90
2020,05,28,12,13,20.00
2020,05,28,12,14,20.00
2020,05,28,12,15,20.10
2020,05,28,12,16,20.10
2020,05,28,12,17,20.10
2020,05,28,12,18,20.10
2020,05,28,12,19,20.10
2020,05,28,12,20,20.10
2020,05,28,12,21,20.10
2020,05,28,12,22,20.10
2020,05,28,12,23,20.10
2020,05,28,12,24,20.10
2020,05,28,12,25,20.20
2020,05,28,12,26,20.30
2020,05,28,12,27,20.30
2020,05,28,12,28,20.40
2020,05,28,12,29,20.50
2020,05,28,12,30,20.60
2020,05,28,12,31,20.60
2020,05,28,12,32,20.70
2020,05,28,12,33,20.70
2020,05,28,12,34,20.70
2020,05,28,12,35,20.70
2020,05,28,12,36,20.80
2020,05,28,12,37,20.80
2020,05,28,12,38,20.90
2020,05,28,12,39,21.00
2020,05,28,12,40,21.00
2020,05,28,12,41,21.00
2020,05,28,12,42,21.00
2020,05,28,12,43,21.00
2020,05,28,12,44,21.00
2020,05,28,12,45,21.00
2020,05,28,12,46,21.00
2020,05,28,12,47,20.90
2020,05,28,12,48,21.00
2020,05,28,12,49,21.00
2020,05,28,12,50,21.00
2020,05,28,12,51,21.00
2020,05,28,12,52,21.10
2020,05,28,12,53,21.10
2020,05,28,12,54,21.20
2020,05,28,12,55,21.20
2020,05,28,12,56,21.30
2020,05,28,12,57,21.30
2020,05,28,12,58,21.40
2020,05,28,12,59,21.40
2020,05,28,13,00,21.40
2020,05,28,13,01,21.50
2020,05,28,13,02,21.50
2020,05,28,13,03,21.60
2020,05,28,13,04,21.70
2020,05,28,13,05,21.80
2020,05,28,13,06,21.90
2020,05,28,13,07,21.90
2020,05,28,13,08,22.00
2020,05,28,13,09,22.00
2020,05,28,13,10,22.10
2020,05,28,13,11,22.00
2020,05,28,13,12,21.90
2020,05,28,13,13,21.90
2020,05,28,13,14,21.80
2020,05,28,13,15,21.80
2020,05,28,13,16,21.80
2020,05,28,13,17,21.80
2020,05,28,13,18,21.70
2020,05,28,13,19,21.70
2020,05,28,13,20,21.70
2020,05,28,13,21,21.70
2020,05,28,13,22,21.70
2020,05,28,13,23,21.70
2020,05,28,13,24,21.70
2020,05,28,13,25,21.70
2020,05,28,13,26,21.70
2020,05,28,13,27,21.70
2020,05,28,13,28,21.60
2020,05,28,13,29,21.60
2020,05,28,13,30,21.60
2020,05,28,13,31,21.60
2020,05,28,13,32,21.60
2020,05,28,13,33,21.60
2020,05,28,13,34,21.60
2020,05,28,13,35,21.70
2020,05,28,13,36,21.70
2020,05,28,13,37,21.80
2020,05,28,13,38,21.90
2020,05,28,13,39,22.00
2020,05,28,13,40,22.10
2020,05,28,13,41,22.20
2020,05,28,13,42,22.20
2020,05,28,13,43,22.30
2020,05,28,13,44,22.40
2020,05,28,13,45,22.50
2020,05,28,13,46,22.60
2020,05,28,13,47,22.80
2020,05,28,13,48,22.90
2020,05,28,13,49,23.00
2020,05,28,13,50,23.10
2020,05,28,13,51,23.20
2020,05,28,13,52,23.30
2020,05,28,13,53,23.40
2020,05,28,13,54,23.40
2020,05,28,13,55,23.50
2020,05,28,13,56,23.60
2020,05,28,13,57,23.60
2020,05,28,13,58,23.70
2020,05,28,13,59,23.70
2020,05,28,14,00,23.70
2020,05,28,14,01,23.70
2020,05,28,14,02,23.70
2020,05,28,14,03,23.80
2020,05,28,14,04,23.80
2020,05,28,14,05,23.90
2020,05,28,14,06,24.00
2020,05,28,14,07,24.10
2020,05,28,14,08,24.20
2020,05,28,14,09,24.30
2020,05,28,14,10,24.40
2020,05,28,14,11,24.40
2020,05,28,14,12,24.40
2020,05,28,14,13,24.50
2020,05,28,14,14,24.60
2020,05,28,14,15,24.60
2020,05,28,14,16,24.70
2020,05,28,14,17,24.70
2020,05,28,14,18,24.80
2020,05,28,14,19,24.80
2020,05,28,14,20,24.80
2020,05,28,14,21,24.90
2020,05,28,14,22,24.90
2020,05,28,14,23,25.00
2020,05,28,14,24,25.10
2020,05,28,14,25,25.10
2020,05,28,14,26,25.10
2020,05,28,14,27,25.10
2020,05,28,14,28,25.10
2020,05,28,14,29,25.20
2020,05,28,14,30,25.20
2020,05,28,14,31,25.20
2020,05,28,14,32,25.20
2020,05,28,14,33,25.20
2020,05,28,14,34,25.20
2020,05,28,14,35,25.10
2020,05,28,14,36,25.10
2020,05,28,14,37,25.10
2020,05,28,14,38,25.00
2020,05,28,14,39,25.00
2020,05,28,14,40,25.00
2020,05,28,14,41,25.00
2020,05,28,14,42,25.00
2020,05,28,14,43,24.90
2020,05,28,14,44,24.90
2020,05,28,14,45,24.90
2020,05,28,14,46,24.90
2020,05,28,14,47,24.90
2020,05,28,14,48,24.90
2020,05,28,14,49,24.90
2020,05,28,14,50,24.90
2020,05,28,14,51,24.90
2020,05,28,14,52,25.00
2020,05,28,14,53,25.00
2020,05,28,14,54,25.10
2020,05,28,14,55,25.00
2020,05,28,14,56,25.00
2020,05,28,14,57,25.00
2020,05,28,14,58,25.00
2020,05,28,14,59,25.00
2020,05,28,15,00,25.10
2020,05,28,15,01,25.10
2020,05,28,15,02,25.10
2020,05,28,15,03,25.10
2020,05,28,15,04,25.20
2020,05,28,15,05,25.20
2020,05,28,15,06,25.20
2020,05,28,15,07,25.20
2020,05,28,15,08,25.20
2020,05,28,15,09,25.30
2020,05,28,15,10,25.30
2020,05,28,15,11,25.30
2020,05,28,15,12,25.40
2020,05,28,15,13,25.30
2020,05,28,15,14,25.40
2020,05,28,15,15,25.40
2020,05,28,15,16,25.30
2020,05,28,15,17,25.20
2020,05,28,15,18,25.20
2020,05,28,15,19,25.20
2020,05,28,15,20,25.10
2020,05,28,15,21,25.00
2020,05,28,15,22,24.90
2020,05,28,15,23,24.80
2020,05,28,15,24,24.80
2020,05,28,15,25,24.70
2020,05,28,15,26,24.70
2020,05,28,15,27,24.70
2020,05,28,15,28,24.70
2020,05,28,15,29,24.70
2020,05,28,15,30,24.70
2020,05,28,15,31,24.70
2020,05,28,15,32,24.60
2020,05,28,15,33,24.60
2020,05,28,15,34,24.60
2020,05,28,15,35,24.60
2020,05,28,15,36,24.60
2020,05,28,15,37,24.50
2020,05,28,15,38,24.50
2020,05,28,15,39,24.40
2020,05,28,15,40,24.30
2020,05,28,15,41,24.30
2020,05,28,15,42,24.30
2020,05,28,15,43,24.30
2020,05,28,15,44,24.30
2020,05,28,15,45,24.30
2020,05,28,15,46,24.30
2020,05,28,15,47,24.30
2020,05,28,15,48,24.40
2020,05,28,15,49,24.40
2020,05,28,15,50,24.50
2020,05,28,15,51,24.50
2020,05,28,15,52,24.60
2020,05,28,15,53,24.60
2020,05,28,15,54,24.60
2020,05,28,15,55,24.60
2020,05,28,15,56,24.60
2020,05,28,15,57,24.60
2020,05,28,15,58,24.60
2020,05,28,15,59,24.60
2020,05,28,16,00,24.60
2020,05,28,16,01,24.60
2020,05,28,16,02,24.60
2020,05,28,16,03,24.60
2020,05,28,16,04,24.60
2020,05,28,16,05,24.60
2020,05,28,16,06,24.70
2020,05,28,16,07,24.70
2020,05,28,16,08,24.80
2020,05,28,16,09,24.80
2020,05,28,16,10,24.80
2020,05,28,16,11,24.80
2020,05,28,16,12,24.80
2020,05,28,16,13,24.70
2020,05,28,16,14,24.70
2020,05,28,16,15,24.70
2020,05,28,16,16,24.70
2020,05,28,16,17,24.70
2020,05,28,16,18,24.70
2020,05,28,16,19,24.60
2020,05,28,16,20,24.60
2020,05,28,16,21,24.60
2020,05,28,16,22,24.60
2020,05,28,16,23,24.60
2020,05,28,16,24,24.60
2020,05,28,16,25,24.60
2020,05,28,16,26,24.60
2020,05,28,16,27,24.60
2020,05,28,16,28,24.70
2020,05,28,16,29,24.70
2020,05,28,16,30,24.70
2020,05,28,16,31,24.70
2020,05,28,16,32,24.70
2020,05,28,16,33,24.70
2020,05,28,16,34,24.70
2020,05,28,16,35,24.70
2020,05,28,16,36,24.80
2020,05,28,16,37,24.80
2020,05,28,16,38,24.80
2020,05,28,16,39,24.80
2020,05,28,16,40,24.80
2020,05,28,16,41,24.80
2020,05,28,16,42,24.90
2020,05,28,16,43,24.90
2020,05,28,16,44,24.90
2020,05,28,16,45,24.90
2020,05,28,16,46,24.90
2020,05,28,16,47,24.90
2020,05,28,16,48,24.90
2020,05,28,16,49,25.00
2020,05,28,16,50,25.00
2020,05,28,16,51,25.00
2020,05,28,16,52,25.00
2020,05,28,16,53,25.00
2020,05,28,16,54,24.90
2020,05,28,16,55,24.90
2020,05,28,16,56,24.90
2020,05,28,16,57,24.90
2020,05,28,16,58,24.80
2020,05,28,16,59,24.70
2020,05,28,17,00,24.60
2020,05,28,17,01,24.60
2020,05,28,17,02,24.60
2020,05,28,17,03,24.60
2020,05,28,17,04,24.60
2020,05,28,17,05,24.60
2020,05,28,17,06,24.60
2020,05,28,17,07,24.60
2020,05,28,17,08,24.70
2020,05,28,17,09,24.70
2020,05,28,17,10,24.70
2020,05,28,17,11,24.80
2020,05,28,17,12,24.80
2020,05,28,17,13,24.80
2020,05,28,17,14,24.80
2020,05,28,17,15,24.80
2020,05,28,17,16,24.80
2020,05,28,17,17,24.80
2020,05,28,17,18,24.80
2020,05,28,17,19,24.80